Location: Newark
(7.0858°N, 171.3717°E)
Time: 12:07:27
(UTC+00:00)

Courier 1B Rocket - Visible Passes

Search period start: 30 November 2020 00:00
Search period end: 10 December 2020 00:00
Orbit: 920 x 1202 km, 28.2° (Epoch: 29 November)

Date Brightness Start Highest point End Pass type
(mag) Time Alt. Az. Time Alt. Az. Time Alt. Az.
30 Nov 7.6 15:22:43 14° NE 15:22:43 14° NE 15:23:34 10° NE visible
30 Nov 6.5 17:09:06 22° NNW 17:10:28 23° NNW 17:16:27 10° NNE visible
01 Dec 6.9 16:12:12 22° NNE 16:12:12 22° NNE 16:15:29 10° NE visible
01 Dec 7.0 17:59:38 10° NW 18:04:03 16° N 18:08:27 10° NNE visible
02 Dec 6.8 17:01:35 18° NNW 17:02:09 18° NNW 17:07:18 10° NNE visible
03 Dec 7.3 16:04:32 15° NNE 16:04:32 15° NNE 16:06:14 10° NNE visible
03 Dec 7.2 17:52:01 10° NNW 17:55:55 14° N 17:59:50 10° NNE visible
04 Dec 7.0 16:53:47 15° N 16:53:58 15° N 16:58:17 10° NNE visible
05 Dec 7.6 15:56:38 11° NNE 15:56:38 11° NNE 15:57:01 10° NNE visible
05 Dec 7.2 17:43:58 10° NNW 17:47:50 14° N 17:51:43 10° NNE visible
06 Dec 7.2 16:45:49 14° N 16:45:52 14° N 16:49:38 10° NNE visible
07 Dec 7.2 17:35:23 10° NNW 17:39:43 16° N 17:44:05 10° NE visible
08 Dec 7.1 08:55:52 10° SSW 08:57:30 15° S 08:57:30 15° S visible
08 Dec 7.2 16:37:44 14° N 16:37:46 14° N 16:41:30 10° NNE visible
09 Dec 7.1 07:57:24 10° SSE 07:58:53 11° SSE 08:00:14 10° SE visible
09 Dec 7.6 09:46:25 10° SW 09:46:36 11° SW 09:46:36 11° SW visible
09 Dec 7.1 17:26:53 11° NNW 17:31:30 18° NNE 17:36:39 10° NE visible
